AO-07 1 07530U 74089B 17025.86149154 -.00000039 00000-0 30648-4 0 9994 2 07530 101.6102 357.4682 0011747 238.1854 150.5650 12.53625223930795 UO-11 1 14781U 84021B 17026.80145936 .00000097 00000-0 18329-4 0 9991 2 14781 97.7187 77.5684 0007317 309.0952 50.9610 14.82851304769396 LO-19 1 20442U 90005G 17025.89885145 -.00000015 00000-0 10741-4 0 9993 2 20442 098.5646 323.9493 0011225 203.3193 156.7483 14.32846389411184 HUBBLE 1 20580U 90037B 17025.93688968 .00000498 00000-0 19819-4 0 9999 2 20580 028.4687 227.4044 0002908 083.6128 059.1358 15.08653493268698 MET-2/21 1 22782U 93055A 17026.22166668 .00000052 00000-0 33046-4 0 9993 2 22782 82.5510 136.2537 0023724 108.7415 269.9273 13.83798373182062 AO-27 1 22825U 93061C 17026.50305446 -.00000007 00000-0 15048-4 0 9991 2 22825 98.7926 350.4961 0008973 31.5530 328.6188 14.29983898217157 IO-26 1 22826U 93061D 17026.84639392 .00000004 00000-0 19222-4 0 9993 2 22826 98.7870 350.9413 0009335 21.4403 338.7168 14.30311420217375 FO-29 1 24278U 96046B 17025.67185325 -.00000002 00000-0 35640-4 0 9995 2 24278 98.5825 287.7457 0350261 346.7177 12.4919 13.53074374 9602 NOAA-15 1 25338U 98030A 17025.96732143 .00000021 00000-0 27669-4 0 9998 2 25338 098.7844 036.5759 0009598 258.6927 101.3174 14.25774701972472 GO-32 1 25397U 98043D 17026.08187325 -.00000025 00000-0 77480-5 0 9999 2 25397 98.5951 331.5312 0002306 69.3991 290.7435 14.23613514963571 ISS 1 25544U 98067A 17024.54013045 .00004750 00000-0 78902-4 0 9992 2 25544 051.6438 034.4158 0007710 114.1014 029.0572 15.54144102007167 NO-44 1 26931U 01043C 17026.66214390 -.00000018 00000-0 25110-4 0 9999 2 26931 67.0515 96.3471 0006745 281.5010 78.5333 14.30444386800101 SO-50 1 27607U 02058C 17026.60109211 .00000050 00000-0 27859-4 0 9993 2 27607 64.5541 198.2079 0040963 158.8833 201.3972 14.75274923758225 CO-55 1 27844U 03031E 17026.85884096 .00000060 00000-0 46863-4 0 9993 2 27844 98.6914 37.9121 0010384 41.2005 318.9955 14.22010783704239 CO-57 1 27848U 03031J 17026.75011104 .00000048 00000-0 41889-4 0 9997 2 27848 98.7009 38.0020 0010417 49.9654 310.2435 14.21629004704106 RS-22 1 27939U 03042A 17026.88514980 .00000108 00000-0 27936-4 0 9998 2 27939 97.9161 176.3705 0012033 319.1065 158.3830 14.66514335712600 NOAA-18 1 28654U 05018A 17025.94152870 -.00000009 00000-0 20314-4 0 9994 2 28654 099.1920 044.6096 0015195 109.8710 250.4099 14.12322813602085 CO-58 1 28895U 05043F 17025.95012000 .00000166 00000-0 40747-4 0 9995 2 28895 097.8466 194.9381 0015891 230.8843 129.0948 14.63332178599454 CO-65 1 32785U 08021C 17025.46398987 .00000269 00000-0 35113-4 0 9999 2 32785 097.5806 056.1559 0011694 282.5998 077.3911 14.87781144473600 AAUSAT2 1 32788U 08021F 17026.08832252 .00000232 00000-0 27150-4 0 9991 2 32788 97.5770 67.3087 0010759 242.2914 117.7215 14.93652870474466 DO-64 1 32789U 08021G 17025.70522405 .00002036 00000-0 15026-3 0 9998 2 32789 097.5795 086.8487 0012273 221.2535 138.7764 15.04321682475340 CO-66 1 32791U 08021J 17026.55948891 .00000465 00000-0 53591-4 0 9990 2 32791 97.5794 61.1175 0012050 263.1882 96.7966 14.90070682474054 RS-30 1 32953U 08025A 17026.79088929 .00000004 00000-0 -44671-4 0 9996 2 32953 82.5061 327.5889 0017834 233.6187 126.3248 12.43074564393851 PRISM 1 33493U 09002B 17026.85823101 .00000609 00000-0 60826-4 0 9998 2 33493 98.1870 263.1716 0015161 185.1524 174.9573 14.95421763434653 NOAA-19 1 33591U 09005A 17025.92668664 .00000064 00000-0 60128-4 0 9998 2 33591 099.0732 350.8827 0013365 315.5618 044.4480 14.12147543410318 TISAT-1 1 36799U 10035E 17025.87083237 .00000599 00000-0 67845-4 0 9993 2 36799 98.0459 145.8950 0013729 76.7501 283.5247 14.90200214354591 JUGNU 1 37839U 11058B 17025.96338667 .00000316 00000-0 26756-4 0 9998 2 37839 019.9601 232.8410 0018984 055.7583 092.3630 14.12569277273459 SRMSAT 1 37841U 11058D 17026.79522851 .00000310 00000-0 25411-4 0 9994 2 37841 19.9715 266.5729 0011751 328.3293 86.6747 14.10562861273294 AO-71 1 37854U 11061E 17026.86676769 .00002971 00000-0 16704-3 0 9997 2 37854 101.7048 188.5852 0169122 133.1002 228.4502 15.03524532285691 HRBE 1 37855U 11061F 17025.91284175 .00002821 00000-0 15610-3 0 9998 2 37855 101.7176 185.0492 0182450 141.5603 219.8770 15.02465919284956 ALMASAT-1 1 38078U 12006B 17025.96425331 .00030938 36771-5 37575-3 0 9995 2 38078 069.4421 153.1955 0335672 139.9737 222.6698 15.15207192263197 HORYU-2 1 38340U 12025D 17026.81016663 .00000281 00000-0 49618-4 0 9998 2 38340 98.3718 25.7918 0012219 27.0919 333.0925 14.75237464252446 RS-40 1 38735U 12041C 17026.41904795 -.00000005 00000-0 -11049-3 0 9994 2 38735 82.4732 52.5851 0016245 340.9310 19.1159 12.42573608204086 BEESAT-3 1 39134U 13015E 17026.59362553 .00003294 00000-0 16341-3 0 9990 2 39134 64.8714 323.2542 0025346 306.7883 53.1424 15.17185447207997 BEESAT-2 1 39136U 13015G 17026.89848181 .00001582 00000-0 95122-4 0 9994 2 39136 64.8712 331.0666 0025511 301.6425 58.2211 15.14596275207870 ZACUBE-1 1 39417U 13066B 17025.77133211 .00000272 00000-0 41101-4 0 9992 2 39417 097.6503 074.7724 0059799 017.1074 343.2136 14.80604330171703 TRITON-1 1 39427U 13066M 17025.67658958 .00000243 00000-0 46632-4 0 9994 2 39427 097.6474 050.5233 0115937 085.3264 276.1172 14.67365076170140 GOMX-1 1 39430U 13066Q 17026.74042118 .00000212 00000-0 47099-4 0 9996 2 39430 97.6630 36.5908 0153207 129.4315 232.0562 14.58773230169316 LO-74 1 39440U 13066AA 17026.84119617 .00000260 00000-0 43445-4 0 9991 2 39440 97.6463 66.1052 0081751 39.7232 320.9926 14.75352421171256 AO-73 1 39444U 13066AE 17026.09044051 .00000284 00000-0 41936-4 0 9990 2 39444 97.6517 75.9512 0058845 13.3915 346.8844 14.81314871170577 SPROUT 1 39770U 14029E 17026.43008549 .00000764 00000-0 93748-4 0 9993 2 39770 97.8710 127.2641 0010559 75.2978 284.9403 14.85942665145089 DUCHIFAT-1 1 40021U 14033M 17026.31265094 .00000565 00000-0 64872-4 0 9991 2 40021 97.9245 299.2422 0014324 51.9403 308.3104 14.89694292141471 NANOSATCBR1 1 40024U 14033Q 17026.18455982 .00000376 00000-0 45945-4 0 9996 2 40024 97.9212 298.2152 0013602 53.2670 306.9794 14.89047295141414 EO-79 1 40025U 14033R 17026.29135345 .00000379 00000-0 47070-4 0 9991 2 40025 97.9200 297.5644 0013803 54.9885 305.2625 14.88283574141381 DTUSAT-2 1 40030U 14033W 17026.19357380 .00000303 00000-0 39151-4 0 9999 2 40030 97.9172 296.7199 0013199 50.3535 309.8843 14.87909695141347 EO-80 1 40032U 14033Y 17026.29679193 .00000351 00000-0 44513-4 0 9992 2 40032 97.9179 296.8307 0013122 50.2891 309.9480 14.87844006141340 ANTELSAT 1 40034U 14033AA 17026.23695260 .00000299 00000-0 52398-4 0 9992 2 40034 97.8785 274.4034 0059941 30.4325 330.0341 14.73593047140020 VELOX-1 1 40057U 14034E 17026.85024781 .00000406 00000-0 65244-4 0 9994 2 40057 98.1883 124.9950 0011900 145.8534 214.3446 14.76982110138898 DAURIA DX 1 1 40071U 14037C 17026.45103274 .00000160 00000-0 28134-4 0 9998 2 40071 98.3295 131.9921 0009042 141.3559 218.8305 14.80950181137992 UKUBE-1 1 40074U 14037F 17026.84593817 .00000422 00000-0 58611-4 0 9994 2 40074 98.3372 135.5456 0005566 137.8837 222.2802 14.83355840138222 HODOYOSHI-1 1 40299U 14070B 17026.44920950 .00000950 00000-0 44702-4 0 9990 2 40299 97.4136 111.3080 0012094 226.3433 196.6300 15.21943797123389 CHUBUSAT-1 1 40300U 14070C 17026.47841758 .00001097 00000-0 53130-4 0 9992 2 40300 97.4084 108.9232 0019298 236.1403 179.8900 15.20512543123259 QSAT-EOS 1 40301U 14070D 17026.85893669 .00002266 00000-0 10005-3 0 9995 2 40301 97.4019 109.0058 0026798 232.2475 221.1701 15.22469018123323 FIREBIRD FU3 1 40377U 15003B 17025.86832806 .00002777 00000-0 12297-3 0 9993 2 40377 99.1080 181.6434 0139644 113.5297 248.0673 15.14449828109468 FIREBIRD FU4 1 40378U 15003C 17026.72143390 .00003427 00000-0 15038-3 0 9992 2 40378 99.1085 182.6909 0139822 110.6489 250.9795 15.14476013109598 GRIFEX 1 40379U 15003D 17026.68684127 .00002575 00000-0 12002-3 0 9997 2 40379 99.1093 181.0111 0145047 116.5996 245.0176 15.12253447109499 NO-84 1 40654U 15025D 17024.38658398 .00008413 00000-0 17225-3 0 03446 2 40654 054.9978 157.9699 0187718 264.7257 093.2312 15.30405127057857 NO-83 1 40655U 15025E 17024.31349498 .00015612 00000-0 26947-3 0 03820 2 40655 054.9857 142.4666 0161766 273.1805 085.0782 15.37984365058040 DEORBITSAIL 1 40719U 15032E 17025.75623596 .00000483 00000-0 77732-4 0 9995 2 40719 97.9963 281.1730 0015345 240.1462 119.8223 14.75883573 83317 NUDT-PHONESAT 1 40900U 15049B 17025.94445128 .00002286 00000-0 11389-3 0 9997 2 40900 097.4440 035.9694 0014597 008.5798 351.5683 15.18500203074863 XW-2A 1 40903U 15049E 17026.83871041 .00002581 00000-0 71200-4 0 9993 2 40903 97.4331 50.7794 0016735 57.3972 302.8885 15.37925500 75915 XW-2C 1 40906U 15049H 17026.83900284 .00000974 00000-0 56784-4 0 9992 2 40906 97.4543 35.1915 0015073 350.3485 9.7455 15.14214905 74846 XW-2D 1 40907U 15049J 17026.76496762 .00001062 00000-0 61447-4 0 9997 2 40907 97.4511 34.9198 0014400 349.1370 10.9549 15.14296686 74837 LILACSAT-2 1 40908U 15049K 17026.89122145 .00000601 00000-0 37688-4 0 9991 2 40908 97.4612 34.9401 0015791 344.8798 15.1959 15.12923006 74807 XW-2F 1 40910U 15049M 17026.84249066 .00001503 00000-0 83801-4 0 9991 2 40910 97.4536 35.4650 0015242 346.6430 13.4396 15.15028660 74756 XW-2B 1 40911U 15049N 17026.43749360 .00001007 00000-0 58534-4 0 9993 2 40911 97.4557 34.9007 0014338 350.6270 9.4692 15.14265561 74680 DCBB 1 40912U 15049P 17026.83622748 .00001805 00000-0 94336-4 0 9994 2 40912 97.4524 36.8910 0015487 340.1965 143.8060 15.17073194 74853 TW-1C 1 40926U 15051B 17026.88934233 .00007012 00000-0 17546-3 0 9995 2 40926 97.2496 67.6321 0011774 329.8230 155.7428 15.40343941 75156 TW-1A 1 40928U 15051D 17025.89884350 .00002725 00000-0 82661-4 0 9998 2 40928 097.2450 064.2456 0013111 356.8090 126.7884 15.34897895074867 IO-86 1 40931U 15052B 17025.71983694 .00000678 00000-0 53298-5 0 9995 2 40931 005.9992 168.5400 0013740 026.2459 333.8422 14.76507718071874 GomX-3 1 40949U 98067HA 16292.18357804 .08527750 12374-4 77882-3 0 9992 2 40949 51.6055 106.7696 0006699 286.1344 73.8944 16.38002265 59645 LQSat 1 40958U 15057A 17026.47434534 .00000022 00000-0 11197-4 0 9991 2 40958 97.9929 104.1774 0018552 156.0934 204.1138 14.72938637 70259 AO-85 1 40967U 15058D 17025.34826861 .00000147 00000-0 36111-4 0 03787 2 40967 064.7774 292.1127 0177620 130.6528 231.0188 14.75296825056042 ATHENOXAT-1 1 41168U 15077C 17025.65334361 .00002847 00000-0 12628-3 0 9999 2 41168 14.9829 130.2900 0011862 202.1201 298.0667 15.11016919 61443 ChubuSat-2 1 41338U 16012B 17025.91712725 .00000423 00000-0 26673-4 0 9995 2 41338 031.0035 295.7540 0013835 091.6707 268.5513 14.99626702051614 ChubuSat-3 1 41339U 16012C 17026.86348543 .00000459 00000-0 29362-4 0 9991 2 41339 31.0127 289.1227 0013523 107.4835 252.7290 14.99841901 51738 Horyu-4 1 41340U 16012D 17026.09649584 .00000618 00000-0 41192-4 0 9999 2 41340 31.0054 292.3852 0014150 106.9027 253.3161 15.00408730 51650 OUFTI-1 1 41458U 16025C 17025.89125495 .00003140 00000-0 17310-3 0 9997 2 41458 098.1984 055.2595 0176630 044.9706 316.5672 15.02435903041217 e-st@r-II 1 41459U 16025D 17025.89961724 .00002441 00000-0 13557-3 0 9993 2 41459 098.1985 055.2477 0177688 044.9764 316.5696 15.02321974041203 AAUSAT4 1 41460U 16025E 17026.36842126 .00002768 00000-0 15394-3 0 9995 2 41460 98.1926 55.7881 0171256 42.4411 318.9931 15.02956063 41280 MinXSS 1 41474U 98067HU 17026.46665136 .00052557 00000-0 34919-3 0 9996 2 41474 51.6442 7.0881 0000675 22.1262 337.9767 15.74915826 39890 CADRE 1 41475U 98067HV 17003.74787607 .12518598 12537-4 55989-3 0 9998 2 41475 51.6110 110.0165 0004040 312.3134 47.7551 16.43344525 36494 NODES 1 1 41477U 98067HX 17026.16508919 .00025314 00000-0 22663-3 0 9995 2 41477 51.6366 13.2626 0000434 280.9401 79.1546 15.68173893 39697 NODES 2 1 41478U 98067HY 17026.43312512 .00025375 00000-0 22864-3 0 9998 2 41478 51.6365 12.0508 0000427 289.0601 71.0349 15.68014296 39735 LO-87 1 41557U 16033B 17026.84000286 .00001761 00000-0 70202-4 0 9999 2 41557 97.4764 106.3329 0015532 141.4414 218.7937 15.26458461 36862 NuSat2 1 41558U 16033C 17026.53372845 .00001799 00000-0 71976-4 0 9999 2 41558 97.4792 106.0563 0015035 141.0514 219.1811 15.26332001 36818 Lapan A3 1 41603U 16040E 17026.90501507 .00000270 00000-0 16084-4 0 9990 2 41603 97.4824 90.4285 0012764 201.4316 264.3835 15.19248062 33202 Swayam 1 41607U 16040J 17025.91071655 .00001685 00000-0 81025-4 0 9998 2 41607 097.4809 089.5065 0013924 207.9122 152.1367 15.20112781032987 Pratham 1 41783U 16059A 17026.63739915 .00000083 00000-0 25694-4 0 9994 2 41783 98.1877 89.3349 0032560 243.5012 116.2850 14.62799683 17909 AlSat 1N 1 41789U 16059G 17026.81085831 .00000104 00000-0 29047-4 0 9991 2 41789 98.1879 89.7378 0027296 238.1374 121.7174 14.64001508 17920 ScatSat 1 41790U 16059H 17025.77552097 .00000020 00000-0 16041-4 0 9997 2 41790 98.0868 81.6963 0010561 220.5449 139.4960 14.50090903 17623 TY-1 1 41844U 16066D 17026.63264154 .00002170 00000-0 95816-4 0 9990 2 41844 97.4069 35.9646 0016908 20.5722 339.6706 15.21634808 11816 CAS-2T 1 41845U 16066E 17026.28383928 -.00000076 00000-0 00000 0 0 9993 2 41845 98.7807 38.4915 0366418 309.5056 47.4269 14.37690094 11107 Pegasus-1 1 41846U 16066F 17026.26040050 -.00000076 00000-0 00000 0 0 9998 2 41846 98.7845 38.3889 0369739 310.2681 46.6735 14.36855529 11093 STARS-C 1 41895U 98067KR 17025.45877150 .00015573 00000-0 23148-3 0 9991 2 41895 51.6412 29.5928 0006039 130.1926 229.9584 15.55343029 5734 BY70-1 1 41909U 16083C 17026.84471594 .00329730 24344-5 49404-3 0 9999 2 41909 97.5781 107.0760 0167800 253.3870 105.1424 15.83446051 4663 OBJECT 41930 1 41930U 98067KS 17026.85565961 .01162065 00000-0 95238-2 0 9998 2 41930 51.6384 22.4329 0013243 121.4114 238.8377 15.67306848 1529 Tancredo 1 1 41931U 98067KT 17025.98711087 .00025873 00000-0 37741-3 0 9994 2 41931 051.6416 027.1274 0009991 099.3902 260.8214 15.55453619001385 ITF-2 1 41932U 98067KU 17026.37449267 .00011194 00000-0 17061-3 0 9991 2 41932 51.6445 25.2170 0007837 97.3938 262.7943 15.54983390 1446 EGG 1 41933U 98067KV 17026.37461183 .00012285 00000-0 18656-3 0 9996 2 41933 51.6439 25.2161 0007785 99.4449 260.7424 15.54978214 1443 OBJECT 41934 1 41934U 98067KW 17026.18215985 .00007820 00000-0 12183-3 0 9991 2 41934 51.6443 26.1802 0009375 105.1859 255.0169 15.54872833 1508 AOBA-V3LOX3 1 41935U 98067KX 17025.98941714 .00012661 00000-0 19258-3 0 9994 2 41935 051.6441 027.1437 0007116 098.7992 261.3811 15.54905383001486 TuPOD 1 41936U 98067KY 17025.98803741 .00031764 00000-0 46499-3 0 9994 2 41936 051.6443 027.1345 0008996 100.4122 259.7856 15.55252267000868 OSNSAT 1 41939U 98067KZ 17025.98746414 .00020065 00000-0 29586-3 0 9990 2 41939 051.6427 027.1294 0010091 098.5889 261.6231 15.55326311000740 /EX
